Temperature
19 18 18 18 17 17 19 19 19 19 19 19 20 19 19 19 19 19 18 18 18 18 18 18 18 18 18 18 18 18 18 18 18 18 18 18 18 18 18 18 18 18 18 18 18 18 19 19 18
19 18 18 18 17 18 19 19 19 19 20 20 20 19 19 18 18 18 18 18 18 18 18 18 18 18 18 18 18 18 18 18 18 18 18 18 18 18 18 18 18 18 18 18 18 18 18 18 18
18 18 18 17 18 18 20 20 19 20 20 20 19 19 19 18 18 19 19 18 18 18 18 18 18 18 18 18 17 17 17 17 17 17 17 17 17 17 17 18 18 18 18 18 18 18 18 18 18
18 18 18 17 19 19 19 20 19 20 20 20 19 19 19 19 19 19 19 19 18 18 18 18 18 17 17 17 17 17 17 17 17 17 17 17 17 17 17 17 17 17 18 18 18 18 18 18 18
18 18 17 18 19 19 19 20 20 20 20 20 19 18 18 19 19 19 19 18 18 18 18 18 17 17 17 17 17 17 17 17 17 17 17 17 17 16 17 17 17 17 17 17 17 18 18 18 18
18 17 17 18 19 20 19 20 20 20 20 20 19 18 18 19 19 19 19 18 18 18 18 18 17 17 17 17 17 17 16 16 16 16 16 16 16 16 16 16 17 17 17 17 17 17 17 17 17
18 17 18 19 19 20 20 20 20 19 19 20 20 18 18 19 19 19 18 18 18 18 18 17 17 17 17 17 17 16 16 16 16 16 16 16 16 16 16 16 16 16 16 16 17 17 17 17 17
19 17 18 18 19 20 20 20 20 20 20 20 20 19 19 19 19 18 18 18 18 18 18 17 17 17 17 17 16 16 16 16 16 16 15 15 15 15 15 15 16 16 16 16 16 16 17 17 17
19 17 18 19 19 20 20 20 21 21 20 20 20 20 20 19 19 18 18 18 18 18 18 17 17 17 17 16 16 16 16 15 15 15 15 15 15 15 15 15 15 16 16 16 16 16 16 16 17
18 17 19 19 19 20 20 20 21 20 20 20 20 20 20 19 19 19 19 18 18 18 18 17 17 17 17 16 16 16 16 15 15 15 15 15 15 15 15 15 15 15 15 15 16 16 16 16 16
18 18 18 19 20 20 20 20 21 20 19 20 20 20 20 19 19 19 19 19 19 18 18 18 17 17 17 16 16 16 15 15 15 15 15 14 14 14 14 15 15 15 15 15 15 15 15 16 16
18 18 19 19 20 20 20 21 20 21 21 22 22 21 20 20 19 19 19 19 19 18 18 18 17 17 17 16 16 15 15 15 15 15 14 14 14 14 14 14 14 15 15 15 15 15 15 15 15
18 18 19 19 20 20 20 20 21 21 22 22 21 21 20 20 20 20 19 19 19 18 18 18 17 17 16 16 16 15 15 15 15 14 14 14 14 14 14 14 14 14 14 14 15 15 15 15 15
18 18 19 19 20 20 20 20 21 21 22 22 21 21 20 20 20 19 19 19 19 19 18 18 17 17 16 16 16 15 15 15 14 14 14 14 14 14 14 14 14 14 14 14 14 15 15 15 15
19 18 19 19 19 20 20 20 20 22 21 21 21 21 20 20 20 20 20 19 19 19 18 18 17 17 16 16 15 15 15 14 14 14 14 14 14 13 14 14 14 14 14 14 14 14 14 15 15
18 18 18 19 19 20 20 20 20 21 21 20 20 20 20 20 20 20 20 20 19 19 18 18 17 17 16 16 15 15 15 14 14 14 14 13 13 13 13 13 13 14 14 14 14 14 14 14 14
17 18 18 19 19 19 19 19 20 20 20 20 20 20 20 20 20 20 20 20 19 19 18 18 17 17 16 16 15 15 15 14 14 14 13 13 13 13 13 13 13 13 13 13 13 14 14 14 14
18 18 18 19 19 19 19 19 19 20 20 20 20 20 20 20 21 20 20 20 19 19 18 18 17 17 16 16 15 15 14 14 14 13 13 13 13 13 13 13 13 13 13 13 13 13 14 14 14
18 18 18 19 19 19 19 18 19 19 19 19 19 20 20 21 21 20 20 20 19 19 18 18 17 17 16 16 15 15 14 14 14 13 13 13 13 13 13 13 13 13 13 13 13 13 13 14 14
18 18 18 19 19 19 18 18 18 18 18 19 19 20 20 21 21 20 20 20 19 19 19 18 17 17 16 16 15 15 14 14 14 13 13 13 13 13 12 12 12 12 12 13 13 13 13 13 13
19 18 19 19 19 19 19 19 19 19 19 20 20 20 21 21 21 21 20 20 19 19 19 18 18 17 16 16 15 15 14 14 14 13 13 13 13 13 12 12 12 12 12 12 12 13 13 13 13
18 19 19 19 18 17 18 18 18 18 18 19 19 20 21 21 21 21 20 20 20 19 19 18 18 17 16 16 15 15 15 14 14 13 13 13 13 12 12 12 12 12 12 12 12 13 13 13 13
19 19 19 19 18 17 17 17 18 17 19 19 19 20 21 21 21 21 21 21 20 20 19 18 18 17 16 16 15 15 14 14 14 13 13 13 13 12 12 12 12 12 12 12 12 12 13 13 13
19 18 17 16 16 17 18 18 18 17 19 19 19 21 22 22 21 21 21 20 20 20 19 18 18 17 17 16 15 15 15 14 14 13 13 13 13 13 13 12 12 12 12 12 12 12 12 13 13
18 17 17 17 16 17 17 18 17 18 19 18 19 21 22 22 22 21 21 21 20 20 19 19 18 17 17 16 16 15 15 14 14 13 13 13 13 13 13 13 12 12 12 12 12 12 12 12 13
18 18 17 18 17 16 17 18 18 19 19 20 20 21 22 22 22 22 21 21 21 20 19 19 18 18 17 16 16 15 15 14 14 13 13 13 13 13 13 13 12 12 12 12 12 12 12 12 12
19 17 17 15 17 16 17 17 18 19 19 19 19 20 21 21 21 22 21 21 21 20 20 19 18 18 17 17 16 15 15 14 14 14 13 13 13 13 13 13 13 13 13 13 13 12 12 12 12
19 16 15 16 17 17 17 17 17 18 18 18 17 18 19 20 21 21 21 21 21 20 20 19 18 18 17 17 16 15 15 14 14 14 13 13 13 13 13 13 13 13 13 13 13 13 12 12 12
19 17 15 14 15 16 17 17 17 17 17 16 16 18 19 20 20 20 20 20 20 20 19 19 18 18 17 17 16 15 15 14 14 14 13 13 13 13 13 13 13 13 13 13 13 13 13 13 12
20 19 16 17 16 14 15 16 17 16 16 16 17 18 19 19 19 20 20 20 19 19 19 19 18 18 17 17 16 16 15 14 14 14 13 13 13 13 13 13 13 13 13 13 13 13 13 13 13
Wind_Speed
3 5 3 3 4 3 1 2 1 0 0 1 2 4 4 4 2 2 0 3 6 6 6 9 9 9 8 7 6 6 6 5 5 6 5 5 5 5 4 4 4 3 3 3 3 2 2 2 2
5 4 3 3 3 2 2 1 1 2 2 2 2 3 4 3 2 3 1 4 7 7 7 7 9 8 8 7 6 5 5 5 4 4 4 3 3 3 3 3 3 2 2 2 2 1 1 1 1
5 2 3 3 2 2 2 2 1 1 2 1 3 4 3 3 3 3 3 7 7 6 6 7 8 8 7 6 5 4 4 3 3 2 2 2 2 2 2 2 2 3 2 2 2 1 1 1 1
3 3 3 3 1 3 3 1 2 2 2 2 3 3 2 2 3 4 7 8 7 5 6 7 8 7 6 5 4 4 3 2 1 1 1 2 2 2 3 3 3 3 3 3 3 2 2 2 2
3 3 3 1 2 2 2 1 2 2 2 2 3 4 2 3 4 7 8 7 7 5 5 6 7 6 5 4 3 3 2 1 1 0 1 2 3 4 4 5 5 4 4 4 4 3 3 3 3
3 3 2 1 3 3 2 1 2 2 2 3 4 4 1 2 6 7 7 6 6 5 4 4 5 5 4 3 2 1 1 0 1 1 2 3 3 4 5 6 6 6 6 6 5 5 4 3 4
3 3 2 2 1 2 1 2 3 3 3 3 5 5 2 2 5 7 6 5 4 4 3 2 1 2 2 2 2 1 1 1 2 3 3 3 4 4 6 6 6 7 7 6 6 6 5 5 5
4 3 1 1 2 2 0 1 1 3 3 3 4 6 4 6 6 6 5 4 3 3 2 2 1 1 1 1 1 1 1 2 3 4 4 4 4 5 6 6 6 7 7 7 6 6 6 6 6
3 3 2 3 4 3 1 1 1 1 4 3 2 4 4 8 9 7 4 3 2 3 2 2 2 1 0 1 2 3 3 4 4 5 5 5 4 4 5 6 6 6 6 6 6 6 6 6 6
3 2 3 2 3 2 1 2 2 2 2 2 2 2 6 9 10 9 7 6 5 5 3 3 3 1 1 1 2 3 3 4 4 4 5 4 4 4 4 6 7 7 6 6 6 6 5 4 4
3 4 2 2 2 0 1 1 2 5 3 6 6 8 9 9 9 9 8 7 7 5 3 3 3 2 2 0 1 1 2 2 3 4 3 3 4 4 4 4 5 6 6 5 6 4 2 1 2
2 1 1 2 2 1 1 1 2 5 7 6 7 11 11 11 11 10 9 7 5 5 4 3 3 3 2 1 1 1 1 1 2 3 2 2 2 2 2 2 3 3 3 3 3 2 2 2 2
1 1 1 2 2 1 1 2 3 5 4 4 8 10 11 11 9 8 7 6 5 5 5 4 4 4 3 2 1 1 0 1 1 2 2 2 1 1 1 2 2 2 2 2 2 2 2 2 2
1 1 2 2 2 2 1 2 2 5 4 7 9 9 10 10 9 7 7 7 7 6 6 4 4 4 3 2 2 1 1 1 1 2 2 1 1 1 1 1 2 2 2 2 2 2 2 2 2
1 1 3 3 1 1 1 4 5 3 7 8 8 8 9 9 8 9 9 8 8 6 6 5 5 4 3 3 2 1 1 1 1 1 2 1 1 0 0 1 2 2 3 2 2 2 1 2 1
3 3 2 4 1 1 2 5 6 2 7 8 8 7 8 8 8 8 8 8 8 7 6 5 4 5 3 2 2 1 1 1 0 1 2 2 2 1 1 1 2 3 2 1 1 1 1 1 1
3 2 2 4 1 1 3 6 6 2 6 8 8 8 8 7 7 7 8 8 8 8 7 5 4 5 3 2 2 1 1 1 1 1 2 2 2 2 1 1 2 2 1 1 2 0 1 1 2
3 2 1 3 2 1 3 7 8 3 6 8 8 8 8 9 10 7 7 7 8 7 6 6 5 4 3 2 2 2 1 1 1 1 2 2 2 3 1 1 2 2 1 1 1 1 1 1 2
4 3 2 4 2 2 5 8 10 5 5 7 7 8 9 10 6 6 7 7 7 6 6 6 6 4 3 2 1 1 1 1 1 2 2 3 3 3 2 2 2 2 1 2 1 0 1 1 0
3 1 2 3 2 1 4 8 8 5 6 7 9 10 10 7 5 6 7 7 8 8 8 7 6 5 4 3 2 2 1 1 2 2 2 3 3 3 2 2 2 2 1 2 1 0 0 1 0
1 3 2 2 4 3 4 8 6 4 3 3 5 7 8 10 10 9 8 8 8 9 9 8 7 6 5 3 2 2 2 2 2 2 2 3 4 4 3 2 2 2 1 1 2 1 1 1 1
2 3 3 0 3 4 4 3 7 6 6 3 3 5 7 8 9 8 9 9 10 10 8 7 7 6 5 4 3 3 2 2 3 2 3 4 4 3 3 2 2 2 1 2 2 1 1 2 1
3 1 3 2 3 3 4 2 8 6 5 5 5 5 7 8 9 10 10 10 9 8 7 7 6 6 5 5 5 4 3 2 2 2 3 3 3 3 3 3 2 2 2 2 2 1 1 2 2
3 5 6 5 5 3 3 1 6 5 5 7 5 5 6 7 7 8 7 7 6 6 6 6 7 6 5 5 5 5 5 3 2 2 3 3 3 3 4 3 2 2 2 2 2 1 2 2 2
5 5 5 7 5 3 4 0 7 7 6 6 7 7 5 5 6 7 8 9 8 9 8 8 8 7 6 6 6 6 5 5 4 4 3 3 3 3 4 3 3 2 2 2 1 1 1 2 2
3 6 6 3 2 4 5 3 7 7 7 5 4 4 3 3 5 7 8 9 9 9 9 9 9 8 7 6 6 5 5 4 4 4 3 3 3 4 4 3 3 3 2 1 0 1 1 1 2
5 3 5 6 2 2 6 7 8 7 9 9 8 6 5 5 5 6 6 8 9 9 10 10 10 8 7 7 6 5 5 4 4 4 3 3 3 3 3 3 3 3 2 1 0 1 1 0 1
4 8 5 5 3 2 6 5 5 9 9 9 8 7 7 6 5 4 4 5 7 7 7 7 8 9 7 7 6 5 5 5 4 3 4 4 4 3 2 2 2 2 2 1 0 1 1 1 1
3 5 6 5 5 5 0 5 3 4 6 6 7 7 6 6 5 4 4 3 3 4 5 6 7 7 7 7 6 6 5 5 4 4 4 4 3 3 2 2 2 2 1 1 0 1 1 1 1
3 5 6 4 2 4 4 4 4 4 5 5 7 8 7 5 5 4 4 2 1 3 4 6 6 7 7 7 6 6 5 4 4 4 4 3 3 3 2 2 2 2 1 1 1 1 1 1 1
Wind_Direction
146 106 88 49 50 47 333 290 225 179 11 16 62 84 94 85 95 137 310 130 132 136 150 153 151 146 144 143 141 136 128 124 127 127 127 129 131 131 132 137 140 141 145 147 143 135 126 114 102
118 104 71 61 75 48 312 273 237 209 156 133 76 75 75 75 81 111 130 138 134 138 141 148 151 145 142 140 139 135 133 131 131 132 132 139 143 141 151 161 164 167 172 177 177 175 169 154 120
123 81 90 79 103 180 252 247 222 52 115 104 76 59 85 119 140 153 162 141 132 134 138 152 150 148 147 145 143 139 138 139 140 147 157 171 180 199 208 210 211 214 217 218 212 226 239 247 271
105 58 61 69 252 234 229 248 146 112 69 66 103 77 61 58 161 155 140 137 134 135 142 159 155 152 151 149 146 142 144 145 155 180 231 253 250 255 252 248 250 249 249 246 241 240 257 267 278
67 82 66 11 288 279 252 221 154 130 103 87 110 102 42 6 108 127 133 137 142 144 149 164 162 159 154 149 148 145 145 150 165 264 295 288 276 273 269 264 262 259 258 260 266 264 268 278 287
69 74 90 276 297 306 284 157 116 119 122 116 116 118 119 97 126 140 140 145 151 149 147 158 169 163 160 160 158 152 158 211 282 311 314 308 297 288 285 281 271 265 263 264 267 270 273 277 286
115 113 166 210 274 309 268 135 147 144 144 160 141 124 141 165 165 149 145 139 139 137 133 136 136 156 172 181 185 199 250 300 314 318 314 313 311 307 303 302 291 277 271 264 261 264 266 273 283
134 122 147 213 208 266 273 106 119 141 156 129 133 148 187 194 160 136 124 116 119 126 143 159 145 121 42 351 307 306 318 336 342 338 335 337 340 337 329 324 312 298 284 275 268 269 276 276 284
115 91 201 219 198 242 179 104 46 88 118 123 160 181 186 145 134 128 124 124 150 171 174 169 150 160 290 300 329 358 5 15 14 6 3 9 3 347 336 331 327 319 305 293 282 277 276 275 283
116 152 229 230 212 217 178 165 162 93 114 151 133 113 122 135 147 157 169 179 187 195 197 181 178 188 210 299 19 13 21 24 23 19 12 10 3 347 345 342 342 339 335 328 306 284 271 280 288
156 187 241 285 284 220 118 139 150 139 210 210 192 166 146 152 162 175 185 190 195 194 191 181 183 182 171 144 23 26 30 26 17 13 9 11 10 1 359 354 348 350 348 348 336 330 302 286 268
163 252 215 303 344 76 168 167 171 193 223 208 183 161 157 166 177 187 192 194 184 175 191 186 171 168 166 143 100 81 51 32 17 4 13 46 33 7 352 350 340 347 342 334 332 329 317 290 273
185 291 349 305 319 297 239 218 218 238 242 144 142 152 168 178 188 194 192 186 175 180 189 183 161 162 148 127 125 98 72 48 32 16 24 74 82 14 352 344 343 337 338 330 318 316 308 291 283
206 264 311 318 322 319 266 271 237 251 155 141 155 174 184 188 190 188 186 188 186 186 185 172 161 162 144 143 145 145 133 95 67 37 22 59 99 103 358 341 333 330 324 313 297 295 293 281 261
100 48 353 334 309 279 111 292 242 233 147 162 177 189 194 201 195 198 195 190 186 181 175 171 169 153 146 150 160 151 148 121 86 18 2 15 46 80 43 331 319 312 316 318 314 315 314 288 274
65 64 341 294 254 244 136 267 276 170 164 183 192 199 205 212 212 210 194 185 178 170 169 177 164 148 153 154 149 136 123 118 91 6 1 357 350 355 16 331 316 320 327 329 309 312 317 304 287
56 121 247 298 268 183 181 254 279 168 178 199 201 207 212 218 224 213 194 184 175 171 167 168 158 158 159 144 114 87 73 55 18 356 349 339 338 336 340 299 301 321 325 318 306 322 249 270 284
177 174 235 270 285 190 232 262 283 244 207 214 208 211 216 219 223 207 192 179 167 164 164 167 165 161 142 106 73 43 28 358 355 334 318 320 328 328 326 294 306 319 325 323 313 295 305 251 266
140 141 249 263 268 227 256 273 283 267 229 225 217 213 219 226 222 191 181 166 158 162 167 175 173 170 149 128 127 130 275 302 319 309 316 323 325 329 320 309 314 321 304 284 279 256 315 316 292
122 148 271 300 330 240 295 288 287 261 231 220 214 214 214 215 202 191 179 174 176 178 181 183 186 182 181 175 171 184 202 256 270 294 313 321 325 324 313 301 294 293 290 307 308 266 155 321 65
181 203 236 289 349 23 345 329 325 324 302 247 215 211 210 207 205 198 190 190 185 189 191 192 194 193 189 170 122 80 46 13 352 329 314 317 321 318 310 295 283 282 263 270 275 240 173 213 291
252 236 200 129 42 341 25 328 309 320 326 308 242 214 215 215 205 200 196 196 199 200 192 191 192 191 189 173 167 169 178 217 249 266 284 306 314 316 315 306 290 281 265 260 263 227 197 170 208
209 61 102 86 109 21 21 55 300 337 335 313 283 248 230 218 207 206 204 205 203 193 187 190 188 194 190 183 183 182 196 222 262 288 297 309 316 315 313 313 307 294 274 262 257 233 197 186 179
127 71 61 53 68 38 341 48 299 301 286 299 296 267 243 223 214 213 209 200 197 187 185 185 189 201 194 190 192 193 201 215 249 284 293 304 311 311 315 318 315 299 281 270 257 230 200 198 184
75 78 36 20 22 294 311 233 262 277 279 268 279 279 260 227 212 210 204 200 197 194 193 189 192 205 198 195 203 206 209 208 222 244 255 276 294 299 305 316 308 301 288 280 251 212 206 197 190
125 126 139 148 225 296 346 309 273 291 309 315 317 313 304 255 231 224 216 209 205 202 197 192 197 206 198 199 210 211 211 210 225 233 234 245 255 268 282 294 298 302 303 298 243 228 237 195 196
123 113 149 126 121 20 326 318 321 349 1 2 2 358 331 301 269 248 233 217 210 205 201 197 199 204 202 203 205 209 212 213 225 236 234 244 256 267 276 291 303 310 315 313 182 208 245 187 188
110 139 99 97 112 18 329 331 312 330 337 348 352 344 330 327 314 289 260 236 221 212 208 199 199 203 204 200 203 206 210 216 221 227 241 251 262 269 284 299 309 318 326 323 170 175 210 165 194
103 86 96 98 131 137 310 298 263 280 308 324 325 322 320 323 322 317 302 276 243 219 205 204 206 206 204 203 204 206 211 214 216 224 238 244 254 263 267 276 294 303 313 315 234 219 192 161 183
137 141 140 132 168 145 152 264 298 311 319 333 334 336 339 335 333 337 339 345 312 243 224 215 212 210 211 204 202 209 210 207 213 227 238 236 246 257 256 264 280 284 288 287 235 236 196 181 190
Height
1500 1500 1501 1502 1504 1510 1511 1506 1502 1502 1501 1501 1500 1501 1502 1504 1507 1512 1509 1507 1509 1510 1512 1513 1515 1516 1517 1518 1519 1520 1521 1522 1522 1523 1524 1524 1525 1525 1525 1526 1526 1526 1526 1526 1526 1526 1527 1526 1526
1500 1500 1503 1503 1509 1517 1513 1504 1503 1501 1501 1501 1501 1502 1503 1505 1506 1507 1507 1508 1510 1511 1513 1514 1516 1517 1518 1519 1519 1520 1521 1522 1522 1523 1523 1524 1524 1525 1525 1525 1525 1526 1526 1526 1526 1526 1526 1526 1526
1500 1501 1503 1505 1510 1515 1510 1502 1501 1500 1501 1501 1502 1503 1504 1506 1506 1507 1508 1509 1511 1512 1514 1515 1516 1517 1518 1519 1519 1520 1521 1521 1522 1522 1523 1523 1524 1524 1524 1525 1525 1525 1525 1525 1525 1526 1526 1526 1526
1501 1502 1504 1508 1510 1506 1503 1500 1500 1501 1501 1501 1502 1505 1506 1507 1508 1508 1509 1510 1512 1513 1515 1516 1517 1517 1518 1519 1519 1520 1520 1521 1521 1521 1522 1522 1522 1523 1523 1523 1523 1524 1524 1524 1524 1524 1525 1525 1526
1501 1502 1507 1511 1508 1502 1500 1499 1500 1501 1501 1502 1502 1504 1506 1508 1508 1509 1510 1511 1513 1514 1515 1516 1517 1518 1518 1519 1519 1519 1520 1520 1520 1520 1520 1521 1521 1521 1521 1522 1522 1522 1522 1522 1523 1523 1523 1524 1524
1502 1503 1512 1514 1508 1501 1499 1499 1500 1501 1502 1502 1503 1505 1507 1508 1509 1510 1511 1512 1514 1515 1516 1517 1517 1518 1519 1519 1519 1519 1519 1519 1519 1520 1519 1519 1519 1519 1520 1520 1520 1520 1520 1521 1521 1522 1522 1522 1523
1502 1505 1510 1509 1507 1503 1499 1499 1500 1501 1502 1503 1503 1505 1507 1508 1510 1511 1512 1513 1515 1516 1517 1517 1518 1518 1519 1519 1519 1519 1519 1519 1519 1519 1519 1518 1518 1518 1518 1518 1518 1518 1519 1519 1519 1520 1520 1521 1521
1501 1505 1508 1509 1507 1504 1499 1499 1500 1501 1502 1503 1504 1504 1506 1508 1510 1511 1513 1514 1515 1516 1517 1518 1518 1519 1519 1519 1519 1519 1518 1518 1518 1518 1517 1517 1517 1517 1516 1516 1516 1516 1516 1517 1517 1518 1518 1519 1520
1500 1508 1510 1507 1505 1502 1499 1500 1500 1501 1502 1503 1504 1504 1505 1507 1509 1511 1513 1514 1515 1516 1517 1518 1519 1519 1519 1519 1519 1518 1518 1517 1517 1517 1517 1516 1516 1516 1515 1515 1515 1514 1514 1515 1515 1516 1516 1517 1518
1500 1507 1505 1501 1500 1499 1499 1499 1500 1501 1502 1502 1503 1504 1505 1507 1509 1510 1512 1513 1515 1516 1517 1518 1519 1519 1519 1519 1518 1518 1517 1517 1517 1516 1516 1515 1515 1515 1514 1514 1513 1513 1513 1513 1513 1513 1514 1514 1515
1499 1502 1500 1499 1498 1498 1499 1500 1500 1501 1502 1501 1501 1502 1504 1506 1508 1510 1512 1513 1514 1516 1517 1518 1518 1518 1518 1518 1518 1518 1517 1517 1516 1515 1515 1514 1514 1513 1513 1512 1512 1511 1511 1511 1511 1511 1511 1512 1512
1499 1499 1499 1499 1498 1498 1498 1499 1500 1499 1499 1499 1500 1502 1503 1505 1507 1509 1511 1513 1514 1515 1516 1517 1518 1518 1518 1518 1517 1517 1516 1516 1515 1514 1514 1513 1512 1512 1511 1511 1510 1510 1510 1509 1509 1509 1509 1509 1510
1498 1498 1498 1498 1498 1498 1498 1498 1498 1497 1497 1498 1500 1501 1503 1505 1507 1509 1511 1513 1514 1515 1516 1517 1517 1517 1517 1517 1517 1516 1515 1515 1514 1513 1513 1512 1511 1510 1510 1509 1509 1508 1508 1508 1508 1507 1507 1507 1508
1498 1498 1498 1498 1498 1498 1498 1497 1498 1496 1497 1498 1499 1501 1503 1504 1506 1508 1510 1511 1513 1514 1515 1516 1517 1517 1517 1516 1516 1515 1514 1514 1513 1512 1511 1510 1510 1509 1508 1507 1507 1506 1506 1506 1505 1505 1505 1505 1506
1498 1499 1499 1498 1498 1498 1498 1499 1496 1495 1496 1497 1498 1500 1502 1504 1506 1507 1509 1510 1512 1514 1515 1515 1516 1516 1516 1515 1515 1514 1513 1513 1512 1511 1510 1509 1508 1507 1506 1506 1505 1504 1504 1504 1503 1503 1503 1503 1504
1499 1503 1507 1500 1498 1497 1501 1504 1494 1494 1494 1495 1497 1500 1501 1503 1504 1506 1508 1510 1511 1513 1514 1515 1515 1515 1515 1515 1514 1513 1512 1512 1511 1510 1509 1508 1506 1505 1505 1504 1503 1502 1502 1501 1501 1501 1501 1501 1501
1505 1510 1509 1503 1497 1498 1500 1501 1493 1493 1493 1494 1495 1497 1499 1501 1503 1505 1507 1509 1510 1512 1513 1514 1515 1515 1514 1514 1513 1512 1511 1510 1509 1509 1507 1506 1505 1504 1503 1502 1501 1500 1500 1499 1499 1499 1499 1499 1499
1510 1509 1508 1506 1499 1498 1500 1498 1491 1492 1492 1492 1494 1496 1497 1499 1501 1503 1505 1507 1509 1511 1512 1513 1514 1514 1513 1513 1512 1511 1510 1509 1508 1508 1507 1505 1504 1503 1502 1501 1500 1499 1498 1497 1497 1497 1497 1497 1497
1502 1506 1508 1503 1498 1499 1499 1498 1491 1489 1490 1491 1492 1493 1495 1497 1499 1502 1504 1506 1508 1509 1511 1512 1513 1513 1513 1512 1511 1510 1509 1509 1508 1507 1506 1504 1503 1502 1500 1499 1498 1497 1497 1496 1495 1495 1495 1495 1495
1501 1505 1506 1502 1497 1499 1500 1498 1490 1488 1487 1487 1489 1490 1492 1495 1497 1499 1502 1504 1505 1507 1509 1511 1511 1512 1511 1511 1510 1509 1509 1508 1507 1506 1505 1503 1502 1501 1500 1498 1497 1496 1495 1494 1494 1493 1493 1493 1494
1503 1505 1504 1504 1500 1499 1501 1501 1494 1488 1487 1486 1487 1489 1491 1492 1494 1497 1499 1501 1503 1505 1507 1509 1510 1510 1510 1510 1509 1509 1508 1507 1506 1505 1504 1503 1501 1500 1499 1497 1496 1495 1494 1493 1492 1492 1492 1492 1492
1506 1499 1500 1502 1508 1514 1509 1519 1501 1494 1489 1486 1486 1487 1488 1490 1492 1495 1497 1499 1501 1503 1506 1507 1508 1509 1509 1509 1508 1507 1507 1506 1505 1504 1503 1502 1500 1499 1498 1496 1495 1494 1493 1492 1491 1491 1490 1491 1491
1500 1497 1500 1503 1508 1515 1514 1519 1510 1498 1493 1489 1486 1486 1487 1489 1491 1493 1495 1497 1499 1502 1504 1505 1507 1507 1507 1507 1507 1506 1505 1505 1504 1503 1502 1501 1499 1498 1497 1495 1494 1493 1492 1491 1490 1489 1489 1489 1490
1496 1500 1505 1511 1517 1525 1518 1520 1517 1504 1496 1491 1486 1485 1486 1488 1489 1491 1494 1496 1498 1500 1502 1503 1504 1505 1505 1505 1505 1505 1504 1503 1503 1502 1501 1500 1498 1497 1496 1495 1493 1492 1491 1490 1489 1488 1488 1488 1488
1499 1511 1526 1529 1534 1530 1519 1519 1516 1497 1492 1490 1487 1485 1486 1487 1488 1490 1492 1493 1495 1497 1499 1501 1502 1503 1503 1504 1503 1503 1503 1502 1501 1501 1500 1499 1497 1496 1495 1494 1492 1491 1490 1489 1488 1488 1487 1487 1487
1502 1509 1527 1535 1537 1533 1522 1521 1508 1495 1491 1489 1487 1487 1486 1487 1488 1489 1490 1492 1493 1495 1497 1498 1499 1500 1501 1502 1502 1502 1501 1501 1500 1499 1499 1498 1497 1496 1494 1493 1492 1491 1490 1489 1488 1487 1487 1486 1486
1503 1511 1512 1526 1529 1535 1528 1518 1503 1493 1492 1490 1489 1488 1487 1487 1487 1487 1488 1490 1491 1492 1494 1495 1497 1498 1499 1499 1500 1500 1499 1499 1499 1498 1497 1497 1496 1495 1494 1493 1491 1490 1489 1488 1487 1487 1486 1486 1486
1498 1507 1518 1526 1536 1540 1531 1525 1521 1505 1500 1495 1493 1491 1489 1488 1487 1487 1487 1488 1489 1490 1492 1493 1494 1495 1496 1497 1497 1497 1498 1497 1497 1497 1496 1495 1495 1494 1493 1492 1491 1490 1489 1488 1487 1487 1486 1486 1485
1502 1509 1518 1528 1529 1540 1539 1533 1511 1507 1502 1499 1495 1492 1490 1488 1487 1486 1486 1487 1487 1488 1489 1490 1492 1493 1494 1494 1495 1495 1495 1496 1495 1495 1495 1494 1494 1493 1492 1491 1490 1489 1489 1488 1487 1486 1486 1485 1485
1496 1502 1512 1523 1529 1534 1538 1534 1506 1505 1502 1499 1496 1493 1491 1489 1488 1487 1486 1486 1486 1486 1487 1488 1489 1490 1491 1492 1492 1493 1493 1493 1493 1493 1493 1493 1492 1492 1491 1490 1490 1489 1488 1488 1487 1486 1485 1485 1485